DW8052 Weather Reports


time (UTC)temp
F
wind
direction
speed
knots
gust
knots
rain 1hr
in
rain 24hr
in
rain mn
in
humidity
%
barometer
mb
20260905195713 60 214 9.6 14.8 0.00 0.02 0.00 48 1013.6
20260905195213 60 239 10.4 17.4 0.00 0.02 0.00 49 1013.5
20260905194713 60 262 11.3 18.2 0.00 0.02 0.00 48 1013.3
20260905194213 60 249 7.8 15.6 0.00 0.02 0.00 47 1013.1
20260905193713 60 244 12.2 13.9 0.00 0.02 0.00 47 1013.1
20260905192713 60 207 3.5 10.4 0.00 0.02 0.00 47 1013.3
20260905192213 60 186 5.2 10.4 0.00 0.02 0.00 48 1013.3
20260905191713 60 201 8.7 14.8 0.00 0.02 0.00 48 1013.0
20260905191213 60 252 10.4 14.8 0.00 0.02 0.00 47 1012.9
20260905190713 60 276 8.7 22.6 0.00 0.02 0.00 47 1012.3
20260905190213 60 282 14.8 25.2 0.00 0.02 0.00 46 1012.3
20260905185713 60 276 15.6 24.3 0.00 0.02 0.00 46 1012.0
20260905185212 60 274 12.2 20.9 0.00 0.02 0.00 46 1012.5
20260905184713 60 276 12.2 20.9 0.00 0.02 0.00 46 1012.1
20260905183713 61 277 13.9 20.0 0.00 0.02 0.00 45 1011.8
20260905182713 61 261 11.3 19.1 0.00 0.02 0.00 45 1011.7
20260905182212 61 271 15.6 22.6 0.00 0.02 0.00 45 1011.9
20260905181212 61 270 14.8 25.2 0.00 0.02 0.00 44 1011.4
20260905180213 61 272 13.0 21.7 0.00 0.02 0.00 44 1010.9
20260905175713 62 259 15.6 24.3 0.00 0.02 0.00 43 1011.4
20260905174713 62 247 19.1 26.9 0.00 0.02 0.00 42 1011.1
20260905174213 62 248 16.5 25.2 0.00 0.02 0.00 42 1011.1
20260905173713 62 263 15.6 35.6 0.00 0.02 0.00 41 1011.0
20260905173213 62 274 21.7 37.4 0.00 0.02 0.00 41 1010.4
20260905172712 62 269 20.0 35.6 0.00 0.02 0.00 41 1009.9
20260905172212 62 280 20.0 33.0 0.00 0.02 0.00 42 1009.7
20260905171713 62 292 17.4 30.4 0.00 0.02 0.00 42 1009.6
20260905171212 63 280 17.4 28.7 0.00 0.02 0.00 42 1010.0
20260905170212 63 269 18.2 26.9 0.00 0.02 0.00 42 1010.3
20260905165713 63 267 14.8 22.6 0.00 0.02 0.00 42 1010.2
20260905165213 63 280 20.9 26.9 0.00 0.02 0.00 41 1009.9
20260905164712 64 279 15.6 26.9 0.00 0.02 0.00 41 1010.3
20260905164213 64 262 20.0 26.1 0.00 0.02 0.00 41 1010.6
20260905163713 64 277 19.1 25.2 0.00 0.02 0.00 41 1010.7
20260905163212 64 254 12.2 26.1 0.00 0.02 0.00 41 1010.8
20260905162213 65 254 7.8 14.8 0.00 0.02 0.00 42 1011.3
20260905161712 65 254 9.6 14.8 0.00 0.02 0.00 41 1011.1
20260905161212 65 273 8.7 14.8 0.00 0.02 0.00 40 1011.0
20260905160212 65 275 10.4 14.8 0.00 0.02 0.00 39 1010.8
20260905155713 65 272 13.9 19.1 0.00 0.02 0.00 38 1010.8
20260905155212 66 261 10.4 18.2 0.00 0.02 0.00 38 1010.9
20260905154712 66 272 13.9 17.4 0.00 0.02 0.00 38 1010.7
20260905153712 66 265 17.4 25.2 0.00 0.02 0.00 37 1010.9
20260905153212 66 259 18.2 25.2 0.00 0.02 0.00 37 1011.1
20260905152712 66 255 19.1 33.9 0.00 0.02 0.00 37 1011.0
20260905152213 66 262 26.1 39.1 0.00 0.02 0.00 37 1011.0
20260905151713 67 259 21.7 35.6 0.00 0.02 0.00 38 1010.8
20260905151212 67 253 20.9 30.4 0.00 0.02 0.00 39 1010.7
20260905150712 67 258 19.1 30.4 0.00 0.02 0.00 40 1010.6
20260905145712 67 263 20.9 28.7 0.00 0.02 0.00 43 1010.6
20260905145213 67 244 16.5 24.3 0.00 0.02 0.00 46 1010.4
20260905144712 67 242 15.6 20.0 0.00 0.02 0.00 47 1010.3
20260905144212 67 248 13.9 18.2 0.00 0.02 0.00 49 1010.2
20260905143713 68 252 12.2 18.2 0.00 0.02 0.00 48 1010.2
20260905143212 68 252 12.2 18.2 0.00 0.02 0.00 49 1010.0
20260905142713 68 258 10.4 14.8 0.00 0.02 0.00 49 1009.8
20260905142212 68 251 11.3 14.8 0.00 0.02 0.00 49 1009.7
20260905141712 68 261 11.3 14.8 0.00 0.02 0.00 49 1009.7
20260905141213 68 261 11.3 15.6 0.00 0.02 0.00 49 1009.5
20260905140713 68 262 14.8 20.0 0.00 0.02 0.00 49 1009.4
20260905140212 68 262 13.9 18.2 0.00 0.02 0.00 49 1009.3
20260905135712 68 262 14.8 20.0 0.00 0.02 0.02 49 1009.3
20260905135212 68 268 14.8 20.0 0.00 0.02 0.02 49 1009.1
20260905134212 68 259 17.4 22.6 0.00 0.02 0.02 50 1009.1
20260905133712 68 257 17.4 22.6 0.00 0.02 0.02 51 1009.0
20260905133213 68 256 15.6 22.6 0.00 0.02 0.02 52 1008.7
20260905132712 68 254 13.9 17.4 0.00 0.02 0.02 52 1008.8
20260905132212 68 253 12.2 15.6 0.00 0.02 0.02 53 1009.1
20260905131712 68 257 12.2 14.8 0.00 0.02 0.02 53 1008.9
20260905130712 68 259 10.4 13.9 0.00 0.02 0.02 53 1008.9
20260905130212 68 265 10.4 13.9 0.00 0.02 0.02 53 1008.8
20260905125712 68 266 11.3 14.8 0.00 0.02 0.02 53 1008.7
20260905124713 68 261 11.3 15.6 0.00 0.02 0.02 54 1008.8
20260905124212 68 262 8.7 13.0 0.00 0.02 0.02 55 1009.0
20260905123712 68 268 10.4 13.0 0.00 0.02 0.02 56 1008.9
20260905122712 68 250 9.6 14.8 0.00 0.02 0.02 58 1008.7
20260905122212 68 232 9.6 15.6 0.00 0.02 0.02 57 1008.9
20260905121712 69 222 4.3 7.8 0.00 0.02 0.02 56 1008.9
20260905121212 69 247 6.1 8.7 0.00 0.02 0.02 55 1008.5
20260905120713 69 245 5.2 7.0 0.00 0.02 0.02 55 1008.6
20260905120212 69 268 4.3 7.0 0.00 0.02 0.02 54 1008.4
20260905115712 70 267 4.3 6.1 0.00 0.02 0.02 53 1008.2
20260905115212 70 283 5.2 10.4 0.00 0.02 0.02 53 1008.2
20260905114712 70 304 7.8 11.3 0.00 0.02 0.02 53 1008.2
20260905113712 70 303 8.7 13.0 0.00 0.02 0.02 52 1008.1
20260905113212 70 303 10.4 13.0 0.00 0.02 0.02 53 1008.2
20260905112712 70 304 11.3 17.4 0.00 0.02 0.02 52 1008.3
20260905112212 70 304 12.2 13.9 0.00 0.02 0.02 53 1008.2
20260905111712 70 308 12.2 13.9 0.00 0.02 0.02 53 1008.1
20260905111212 70 304 9.6 15.6 0.00 0.02 0.02 53 1008.2
20260905110713 71 313 12.2 15.6 0.00 0.02 0.02 53 1008.3
20260905105712 71 317 11.3 14.8 0.00 0.02 0.02 52 1008.0
20260905105212 71 320 12.2 14.8 0.00 0.02 0.02 52 1008.0
20260905104712 71 319 13.0 17.4 0.00 0.02 0.02 52 1008.0
20260905102712 72 327 14.8 17.4 0.00 0.02 0.02 49 1008.1
20260905102212 72 310 13.9 17.4 0.00 0.02 0.02 49 1008.1
20260905101712 72 317 13.9 18.2 0.00 0.02 0.02 48 1008.0
20260905101212 72 314 13.9 19.1 0.00 0.02 0.02 48 1007.9
20260905100712 72 318 14.8 18.2 0.00 0.02 0.02 47 1007.8
20260905100212 72 310 13.0 17.4 0.00 0.02 0.02 47 1008.0
20260905095212 72 315 12.2 17.4 0.00 0.02 0.02 47 1007.7
20260905094712 73 308 11.3 18.2 0.00 0.02 0.02 47 1007.8
20260905094212 73 308 11.3 18.2 0.00 0.02 0.02 46 1007.8
20260905093712 73 310 12.2 17.4 0.00 0.02 0.02 46 1007.7
20260905092712 73 311 13.0 17.4 0.00 0.02 0.02 46 1007.7
20260905092212 73 305 12.2 17.4 0.00 0.02 0.02 46 1007.8
20260905090712 73 316 13.9 21.7 0.00 0.02 0.02 46 1007.9
20260905090211 73 309 14.8 20.0 0.00 0.02 0.02 46 1007.7
20260905085712 73 312 17.4 22.6 0.00 0.02 0.02 46 1007.8
20260905084212 71 320 14.8 22.6 0.00 0.02 0.02 52 1007.5
20260905083711 71 331 14.8 18.2 0.00 0.02 0.02 54 1007.6
20260905083212 71 331 13.9 20.0 0.00 0.02 0.02 55 1007.8
20260905082712 71 315 13.9 19.1 0.00 0.02 0.02 55 1008.1
20260905082212 70 320 17.4 26.9 0.00 0.02 0.02 56 1007.7
20260905081711 70 345 12.2 17.4 0.00 0.02 0.02 59 1008.2
20260905081211 70 334 11.3 15.6 0.00 0.02 0.02 60 1008.2
20260905080712 70 317 12.2 17.4 0.00 0.02 0.02 60 1008.5
20260905080211 70 311 13.9 15.6 0.00 0.02 0.02 60 1008.4
20260905075712 69 322 12.2 15.6 0.00 0.02 0.02 60 1008.4
20260905075212 69 316 10.4 13.9 0.00 0.02 0.02 61 1008.6
20260905074712 69 297 8.7 13.9 0.00 0.02 0.02 61 1008.6
20260905073711 70 329 13.9 19.1 0.00 0.02 0.02 59 1008.3
20260905073212 70 337 12.2 18.2 0.01 0.02 0.02 58 1008.1
20260905072212 70 300 11.3 19.1 0.02 0.02 0.02 59 1008.3
20260905071711 70 282 16.5 25.2 0.02 0.02 0.02 59 1009.0
20260905071212 70 274 17.4 24.3 0.02 0.02 0.02 60 1009.2
20260905070712 69 278 14.8 22.6 0.02 0.02 0.02 62 1009.5
20260905065712 69 278 13.9 17.4 0.02 0.02 0.02 62 1008.9
20260905064211 70 282 17.4 26.1 0.02 0.02 0.02 60 1008.9
20260905063711 71 287 13.9 28.7 0.02 0.02 0.02 58 1008.7
20260905063211 73 278 26.1 33.9 0.01 0.01 0.01 53 1009.5
20260905062712 75 270 31.3 42.6 0.00 0.00 0.00 46 1009.3
20260905061711 79 255 33.9 47.8 0.00 0.00 0.00 36 1008.7
20260905061211 80 249 39.1 53.0 0.00 0.00 0.00 33 1008.4
20260905060711 82 237 32.2 41.7 0.00 0.00 0.00 32 1007.9
20260905055711 84 276 19.1 32.2 0.00 0.00 0.00 27 1007.2
20260905055211 84 286 18.2 32.2 0.00 0.00 0.00 27 1007.1
20260905054711 85 274 17.4 27.8 0.00 0.00 0.00 27 1006.6
20260905054211 85 277 24.3 32.2 0.00 0.00 0.00 27 1006.4
20260905053711 85 275 30.4 42.6 0.00 0.00 0.00 26 1006.2
20260905053211 85 280 22.6 37.4 0.00 0.00 0.00 26 1005.7
20260905052211 85 270 29.5 41.7 0.00 0.00 0.00 26 1005.6
20260905051711 85 271 28.7 41.7 0.00 0.00 0.00 26 1005.4
20260905051211 85 278 25.2 40.0 0.00 0.00 0.00 25 1005.6
20260905050711 85 271 25.2 41.7 0.00 0.00 0.00 25 1005.5
20260905050211 86 263 30.4 40.8 0.00 0.00 0.00 25 1005.3
20260905045711 86 275 22.6 40.0 0.00 0.00 0.00 24 1005.4
20260905045211 86 274 26.1 35.6 0.00 0.00 0.00 24 1005.4
20260905044711 86 269 20.0 33.9 0.00 0.00 0.00 24 1005.3
20260905044212 87 261 18.2 27.8 0.00 0.00 0.00 24 1005.2
20260905043711 87 270 20.0 39.1 0.00 0.00 0.00 22 1005.2
20260905042711 86 275 12.2 18.2 0.00 0.00 0.00 27 1005.5
20260905042211 86 301 14.8 19.1 0.00 0.00 0.00 26 1005.2
20260905041711 86 318 13.9 22.6 0.00 0.00 0.00 27 1005.1
20260905041211 86 328 15.6 22.6 0.00 0.00 0.00 27 1005.0
20260905040211 85 335 14.8 20.9 0.00 0.00 0.00 27 1005.3
20260905035711 85 329 13.9 21.7 0.00 0.00 0.00 28 1005.2
20260905035210 84 340 13.0 20.9 0.00 0.00 0.00 27 1005.5
20260905034711 84 338 17.4 26.1 0.00 0.00 0.00 27 1005.4
20260905034211 84 346 13.9 25.2 0.00 0.00 0.00 27 1005.6
20260905033711 84 334 11.3 22.6 0.00 0.00 0.00 28 1005.7
20260905033210 83 343 12.2 21.7 0.00 0.00 0.00 28 1005.8
20260905032211 83 354 16.5 25.2 0.00 0.00 0.00 28 1006.2
20260905031710 83 345 20.0 34.8 0.00 0.00 0.00 28 1006.4
20260905031211 82 347 16.5 34.8 0.00 0.00 0.00 29 1006.5
20260905030211 82 337 20.9 27.8 0.00 0.00 0.00 28 1006.9
20260905024711 81 339 10.4 17.4 0.00 0.00 0.00 32 1007.2
20260905024211 81 0 13.9 22.6 0.00 0.00 0.00 31 1007.5
20260905023710 81 341 14.8 26.9 0.00 0.00 0.00 30 1007.7
20260905023211 81 348 10.4 24.3 0.00 0.00 0.00 31 1008.0
20260905022711 81 335 10.4 14.8 0.00 0.00 0.00 32 1008.2
20260905022211 81 345 13.9 20.0 0.00 0.00 0.00 31 1008.3
20260905021711 81 341 14.8 21.7 0.00 0.00 0.00 30 1008.7
20260905021211 81 345 15.6 26.9 0.00 0.00 0.00 30 1008.8
20260905020711 81 351 13.9 19.1 0.00 0.00 0.00 32 1009.0
20260905020210 81 345 14.8 26.1 0.00 0.00 0.00 30 1009.1
20260905015711 81 344 12.2 19.1 0.00 0.00 0.00 30 1009.4
20260905015211 80 1 11.3 17.4 0.00 0.00 0.00 30 1009.5
20260905014711 80 356 13.9 18.2 0.00 0.00 0.00 30 1009.7
20260905014211 80 346 12.2 17.4 0.00 0.00 0.00 31 1009.8
20260905013711 80 353 10.4 14.8 0.00 0.00 0.00 31 1010.0
20260905013211 80 353 11.3 17.4 0.00 0.00 0.00 31 1010.1
20260905012711 80 347 7.8 13.9 0.00 0.00 0.00 31 1010.4
20260905012210 79 349 7.8 14.8 0.00 0.00 0.00 32 1010.6
20260905011710 79 342 8.7 14.8 0.00 0.00 0.00 32 1010.5
20260905011210 78 337 7.0 14.8 0.00 0.00 0.00 33 1010.9
20260905010711 78 330 8.7 12.2 0.00 0.00 0.00 33 1011.0
20260905010211 78 345 7.8 11.3 0.00 0.00 0.00 33 1011.4
20260905005711 77 347 5.2 10.4 0.00 0.00 0.00 33 1011.4
20260905005210 77 329 5.2 12.2 0.00 0.00 0.00 33 1011.5
20260905004711 76 343 6.1 13.0 0.00 0.00 0.00 33 1011.7
20260905004211 76 328 11.3 13.9 0.00 0.00 0.00 33 1012.0
20260905003710 76 340 10.4 15.6 0.00 0.00 0.00 34 1012.0
20260905002711 75 335 10.4 13.0 0.00 0.00 0.00 35 1012.4
20260905002211 75 341 10.4 13.9 0.00 0.00 0.00 34 1012.6
20260905001210 74 347 11.3 14.8 0.00 0.00 0.00 35 1012.8
20260905000211 73 349 10.4 14.8 0.00 0.00 0.00 37 1013.4
20260904235711 72 334 7.0 10.4 0.00 0.00 0.00 41 1013.4
20260904235210 72 354 3.5 8.7 0.00 0.00 0.00 42 1013.3
20260904234710 71 348 7.0 10.4 0.00 0.00 0.00 41 1013.3
20260904234211 71 345 7.0 10.4 0.00 0.00 0.00 42 1013.7
20260904233711 71 337 6.1 8.7 0.00 0.00 0.00 42 1014.0
20260904232710 71 323 7.8 10.4 0.00 0.00 0.00 43 1014.1
20260904232210 70 322 4.3 10.4 0.00 0.00 0.00 44 1014.0
20260904231711 70 337 6.1 10.4 0.00 0.00 0.00 44 1014.2
20260904231211 69 320 7.8 10.4 0.00 0.00 0.00 45 1014.2
20260904230710 68 325 6.1 10.4 0.00 0.00 0.00 47 1014.4
20260904230210 68 335 5.2 10.4 0.00 0.00 0.00 48 1014.5
20260904225211 66 321 6.1 10.4 0.00 0.00 0.00 51 1014.7
20260904224210 65 325 8.7 12.2 0.00 0.00 0.00 52 1015.0
20260904223710 65 316 8.7 11.3 0.00 0.00 0.00 53 1015.1
20260904223210 64 311 9.6 11.3 0.00 0.00 0.00 53 1015.2
20260904222711 64 326 8.7 11.3 0.00 0.00 0.00 54 1015.2
20260904221711 64 328 7.8 11.3 0.00 0.00 0.00 55 1015.2
20260904221210 63 313 7.8 10.4 0.00 0.00 0.00 55 1015.0
20260904220710 63 323 8.7 12.2 0.00 0.00 0.00 56 1015.1
20260904220210 63 320 8.7 12.2 0.00 0.00 0.00 57 1015.1
20260904215710 62 329 10.4 13.0 0.00 0.00 0.00 57 1015.0
20260904215211 62 315 8.7 12.2 0.00 0.00 0.00 57 1015.3
20260904214710 62 315 9.6 12.2 0.00 0.00 0.00 57 1015.4
20260904213210 62 324 11.3 13.9 0.00 0.00 0.00 58 1015.4
20260904212711 62 322 12.2 13.9 0.00 0.00 0.00 58 1015.4
20260904212210 61 321 11.3 13.9 0.00 0.00 0.00 59 1015.3
20260904211710 61 320 11.3 13.0 0.00 0.00 0.00 59 1015.4
20260904211210 61 320 8.7 12.2 0.00 0.00 0.00 60 1015.2
20260904210711 60 321 10.4 12.2 0.00 0.00 0.00 60 1015.4
20260904210210 60 317 12.2 13.9 0.00 0.00 0.00 60 1015.4
20260904205710 60 310 11.3 13.9 0.00 0.00 0.00 61 1015.6
20260904205211 60 312 12.2 14.8 0.00 0.00 0.00 61 1015.4
20260904204710 60 315 13.9 15.6 0.00 0.00 0.00 61 1015.5
20260904204210 60 314 14.8 17.4 0.00 0.00 0.00 60 1015.4
20260904203710 60 309 14.8 17.4 0.00 0.00 0.00 60 1015.4
20260904203210 60 310 13.9 17.4 0.00 0.00 0.00 60 1015.7
20260904202210 60 307 14.8 17.4 0.00 0.00 0.00 59 1015.5
20260904201710 61 317 13.9 17.4 0.00 0.00 0.00 60 1015.5
20260904201210 61 307 13.0 14.8 0.00 0.00 0.00 59 1015.4
20260904200210 60 303 12.2 13.9 0.00 0.00 0.00 60 1015.5